Tracking 30115 objects as of 9-Feb-2025
HD Live streaming from Space Station
objects crossing your sky now

COSMOS 374 DEB

Track COSMOS 374 DEB now!
10-day predictions


NORAD ID: 4617
Int'l Code: 1970-089D
Perigee: 556.2 km
Apogee: 999.2 km
Inclination: 62.9 °
Period: 100.3 minutes
Semi major axis: 7148 km
RCS: 0.3477 m2 (medium)
Launch date: October 23, 1970
Source: Commonwealth of Independent States (former USSR) (CIS)
Launch site: TYURATAM MISSILE AND SPACE COMPLEX (TTMTR)

Note: This is SATELLITE DEBRIS
Your satellite tracking list
Your tracking list is empty




NASA's NSSDC Master Catalog

Two Line Element Set (TLE):
1 04617U 70089D   25040.50791427  .00009252  00000-0  18411-2 0  9993
2 04617  62.9445  75.1932 0309871 268.7319  87.8238 14.36348859697066
Source of the keplerian elements: AFSPC